Location: Katowice
(50.2611°N, 19.0242°E)
Time: 23:41:45
(UTC+02:00)

ISS - Pass Details

Date: 26 March 2019
Orbit: 408 x 410 km, 51.6° (Epoch: 26 April)

Event Time Altitude Azimuth Distance (km) Brightness Sun altitude
Rises 20:59:08 0° 276° (W) 2,337 0.8 -26.0°
Reaches altitude 10° 21:01:14 10° 279° (W) 1,475 -0.3 -26.3°
Enters shadow 21:02:32 22° 284° (WNW) 963 -1.4 -26.4°
